Location: Newark
(7.0858°N, 171.3717°E)
Time: 07:12:08
(UTC+00:00)

Courier 1B Rocket - Pass Details

Date: 02 December 2020
Orbit: 920 x 1202 km, 28.2° (Epoch: 17 January)

Event Time Altitude Azimuth Distance (km) Brightness Sun altitude
Rises 20:44:10 0° 314° (NW) 4,081 7.7 28.7°
Reaches altitude 10° 20:47:51 10° 328° (NNW) 3,097 7.2 29.5°
Maximum altitude 20:53:31 22° 16° (NNE) 2,286 7.0 30.7°
Drops below altitude 10° 20:58:59 10° 64° (ENE) 2,981 8.1 31.9°
Sets 21:02:26 0° 79° (E) 3,889 8.8 32.6°
